Location: Unspecified
(0.0000°N, 0.0000°E)
Time: 19:19:07
(UTC+00:00)

CZ-3C DEB - Pass Details

Date: 14 March 2026
Orbit: 1497 x 35067 km, 20.3° (Epoch: 12 June)

Event Time Altitude Azimuth Distance (km) Brightness Sun altitude
Rises 21:03:32 0° 285° (WNW) 9,251 ? -43.6°
Reaches altitude 10° 21:07:44 10° 284° (WNW) 9,296 ? -44.6°
Maximum altitude 22:39:00 69° 234° (SW) 22,891 ? -67.4°
Drops below altitude 10° 07:10:33 10° 75° (ENE) 5,028 ? 15.4°
Sets 07:12:47 0° 74° (ENE) 5,581 ? 15.9°
